TimeCST,TemperatureF,Dew PointF,Humidity,Sea Level PressureIn,VisibilityMPH,Wind Direction,Wind SpeedMPH,Gust SpeedMPH,PrecipitationIn,Events,Conditions,WindDirDegrees,DateUTC
12:53 AM,51.1,39.0,63,30.04,10.0,SSE,17.3,25.3,N/A,,Clear,160,2013-11-04 06:53:00
1:53 AM,51.1,39.0,63,30.02,10.0,South,15.0,25.3,N/A,,Clear,170,2013-11-04 07:53:00
2:53 AM,51.1,39.0,63,30.04,10.0,SSE,13.8,26.5,N/A,,Partly Cloudy,160,2013-11-04 08:53:00
3:53 AM,50.0,39.9,68,30.04,10.0,SSE,8.1,19.6,N/A,,Mostly Cloudy,160,2013-11-04 09:53:00
4:53 AM,50.0,39.9,68,30.05,10.0,SSE,6.9,18.4,N/A,,Overcast,160,2013-11-04 10:53:00
5:53 AM,50.0,39.9,68,30.06,10.0,South,13.8,19.6,N/A,,Mostly Cloudy,170,2013-11-04 11:53:00
6:53 AM,50.0,39.9,68,30.06,10.0,South,12.7,-,N/A,,Scattered Clouds,170,2013-11-04 12:53:00
7:53 AM,51.1,39.9,66,30.06,10.0,SSE,11.5,18.4,N/A,,Overcast,150,2013-11-04 13:53:00
8:53 AM,51.1,42.1,71,30.09,10.0,South,10.4,21.9,0.00,Rain,Light Rain,170,2013-11-04 14:53:00
9:53 AM,53.1,43.0,69,30.09,10.0,South,19.6,26.5,0.00,,Mostly Cloudy,170,2013-11-04 15:53:00
10:53 AM,54.0,43.0,66,30.11,10.0,South,18.4,28.8,N/A,,Overcast,180,2013-11-04 16:53:00
11:53 AM,54.0,45.0,72,30.10,10.0,South,17.3,21.9,N/A,,Overcast,180,2013-11-04 17:53:00
12:53 PM,54.0,45.0,72,30.10,10.0,South,8.1,-,N/A,,Overcast,180,2013-11-04 18:53:00
1:53 PM,55.0,46.0,72,30.08,10.0,South,13.8,20.7,N/A,,Overcast,180,2013-11-04 19:53:00
2:53 PM,54.0,48.0,80,30.09,10.0,South,13.8,-,N/A,,Overcast,170,2013-11-04 20:53:00
3:53 PM,54.0,48.9,83,30.09,10.0,South,16.1,23.0,N/A,,Overcast,170,2013-11-04 21:53:00
4:53 PM,54.0,48.9,83,30.10,10.0,South,10.4,16.1,N/A,,Overcast,170,2013-11-04 22:53:00
5:53 PM,54.0,48.9,83,30.11,10.0,SSE,5.8,-,N/A,,Overcast,160,2013-11-04 23:53:00
6:21 PM,53.6,50.0,88,30.13,10.0,SSE,11.5,-,N/A,,Overcast,160,2013-11-05 00:21:00
6:31 PM,53.6,50.0,88,30.13,10.0,SSE,8.1,20.7,N/A,,Overcast,160,2013-11-05 00:31:00
6:53 PM,54.0,50.0,86,30.14,10.0,SSE,8.1,-,N/A,,Overcast,160,2013-11-05 00:53:00
7:03 PM,53.6,50.0,88,30.14,10.0,SSE,11.5,16.1,N/A,,Overcast,160,2013-11-05 01:03:00
7:53 PM,54.0,51.1,90,30.15,10.0,SSE,11.5,-,N/A,,Overcast,160,2013-11-05 01:53:00
8:17 PM,53.6,50.0,88,30.16,10.0,SSE,9.2,-,N/A,,Overcast,160,2013-11-05 02:17:00
8:53 PM,54.0,51.1,90,30.16,10.0,SSE,9.2,-,N/A,,Overcast,160,2013-11-05 02:53:00
9:53 PM,54.0,51.1,90,30.17,10.0,SSE,10.4,-,0.00,,Overcast,150,2013-11-05 03:53:00
10:09 PM,53.6,51.8,94,30.17,10.0,SSE,8.1,-,0.01,Rain,Light Rain,150,2013-11-05 04:09:00
10:20 PM,53.6,51.8,94,30.17,10.0,SSE,8.1,-,0.01,Rain,Light Rain,150,2013-11-05 04:20:00
10:53 PM,54.0,52.0,93,30.16,9.0,SSE,4.6,-,0.02,Rain,Light Rain,150,2013-11-05 04:53:00
11:53 PM,55.0,52.0,89,30.16,10.0,South,6.9,-,0.02,Rain,Light Rain,170,2013-11-05 05:53:00